[TLELIST] Archives

 

[list_settings.list_name] Current TLEs

January 28th 2014 PDT

HST 1 20580U 90037B 14027.88689948 .00002233 00000-0 14336-3 0 4252 2 20580 028.4689 238.8978 0002742 230.7688 260.3599 15.04569509103561 ISS (ZARYA) 1 25544U 98067A 14028.24516388 .00009524 00000-0 17544-3 0 5633 2 25544 051.6460 073.2598 0003956 065.7917 052.6827 15.49868614869618 CXO 1 25867U 99040B 14030.37354444 .00000192 00000-0 00000+0 0 9791 2 25867 076.5323 327.0191 8305172 275.7091 000.5175 00.37802954 11396 ____________________________________________________________________ These 2-Line ...Continue Reading

[list_settings.list_name] Current TLEs

January 27th 2014 PDT

HST 1 20580U 90037B 14026.81785486 .00002637 00000-0 17146-3 0 4247 2 20580 028.4689 245.9223 0002755 215.7101 233.5723 15.04564688103395 ISS (ZARYA) 1 25544U 98067A 14027.27827616 .00009680 00000-0 17762-3 0 5561 2 25544 051.6489 078.0418 0003854 076.0960 043.9547 15.49958405869466 CXO 1 25867U 99040B 14027.72806149 .00000177 00000-0 00000+0 0 9782 2 25867 076.5213 327.1638 8309830 275.7043 000.5316 00.37800783 11387 ____________________________________________________________________ These 2-Line ...Continue Reading

[list_settings.list_name] Current TLEs

January 26th 2014 PDT

HST 1 20580U 90037B 14025.10114655 .00002198 00000-0 14095-3 0 4233 2 20580 028.4694 257.1922 0002910 196.0597 296.4577 15.04558258103149 ISS (ZARYA) 1 25544U 98067A 14026.44153630 .00039727 00000-0 70186-3 0 5516 2 25544 051.6448 082.1857 0003883 063.9098 064.1903 15.49943751869338 CXO 1 25867U 99040B 14027.72806149 .00000177 00000-0 00000+0 0 9782 2 25867 076.5213 327.1638 8309830 275.7043 000.5316 00.37800783 11387 ____________________________________________________________________ These 2-Line ...Continue Reading

[list_settings.list_name] Current TLEs

January 25th 2014 PDT

HST 1 20580U 90037B 14025.10114655 .00002198 00000-0 14095-3 0 4233 2 20580 028.4694 257.1922 0002910 196.0597 296.4577 15.04558258103149 ISS (ZARYA) 1 25544U 98067A 14025.27173318 .00012220 00000-0 22232-3 0 5430 2 25544 051.6493 087.9801 0003820 072.5281 004.0846 15.49925288869155 CXO 1 25867U 99040B 14027.72806149 .00000177 00000-0 00000+0 0 9782 2 25867 076.5213 327.1638 8309830 275.7043 000.5316 00.37800783 11387 ____________________________________________________________________ These 2-Line ...Continue Reading

[list_settings.list_name] Current TLEs

January 24th 2014 PDT

HST 1 20580U 90037B 14024.08173020 .00002298 00000-0 14789-3 0 4220 2 20580 028.4711 263.8932 0003412 186.2019 173.8459 15.04554018102980 ISS (ZARYA) 1 25544U 98067A 14024.50341103 .00012209 00000-0 22228-3 0 5379 2 25544 051.6493 091.7856 0003732 068.4074 038.3727 15.49906082869030 CXO 1 25867U 99040B 14022.48379904 .00000000 00000-0 10000-3 0 9773 2 25867 076.4910 327.4187 8309091 275.7543 006.8105 00.37815396 11376 ____________________________________________________________________ These 2-Line ...Continue Reading

[list_settings.list_name] Current TLEs

January 23rd 2014 PDT

HST 1 20580U 90037B 14022.11323434 .00002070 00000-0 13206-3 0 4218 2 20580 028.4694 276.8013 0002944 163.9132 312.9806 15.04545523102692 ISS (ZARYA) 1 25544U 98067A 14023.42103009 .00010926 00000-0 20002-3 0 5226 2 25544 051.6495 097.1484 0003708 065.1744 118.3362 15.49873412868864 CXO 1 25867U 99040B 14025.08304606 .00000055 00000-0 00000+0 0 9864 2 25867 076.5140 327.2921 8312672 275.7060 000.5970 00.37801569 11377 ____________________________________________________________________ These 2-Line ...Continue Reading

[list_settings.list_name] Current TLEs

January 22nd 2014 PDT

HST 1 20580U 90037B 14022.11323434 .00002070 00000-0 13206-3 0 4218 2 20580 028.4694 276.8013 0002944 163.9132 312.9806 15.04545523102692 ISS (ZARYA) 1 25544U 98067A 14022.45306713 .00011696 00000-0 21371-3 0 5174 2 25544 051.6485 101.9430 0003676 062.9204 116.2628 15.49851135868712 CXO 1 25867U 99040B 14022.43852842 .00000007 00000-0 00000+0 0 9856 2 25867 076.5045 327.4355 8314721 275.7140 000.6941 00.37802723 11361 ____________________________________________________________________ These 2-Line ...Continue Reading

[list_settings.list_name] Current TLEs

January 21st 2014 PDT

HST 1 20580U 90037B 14020.84374699 .00001749 00000-0 10977-3 0 4208 2 20580 028.4697 285.1350 0002991 149.5474 277.7833 15.04540574102490 ISS (ZARYA) 1 25544U 98067A 14021.26996815 .00013801 00000-0 25088-3 0 5102 2 25544 051.6488 107.8034 0003858 058.3374 355.4936 15.49825920868531 CXO 1 25867U 99040B 14022.43852842 .00000007 00000-0 00000+0 0 9856 2 25867 076.5045 327.4355 8314721 275.7140 000.6941 00.37802723 11361 ____________________________________________________________________ These 2-Line ...Continue Reading

[list_settings.list_name] Current TLEs

January 20th 2014 PDT

HST 1 20580U 90037B 14019.20156808 .00001836 00000-0 11584-3 0 4196 2 20580 028.4700 295.9148 0003068 133.4275 021.7627 15.04534548102252 ISS (ZARYA) 1 25544U 98067A 14020.43962693 .00009546 00000-0 17623-3 0 5047 2 25544 051.6507 111.9198 0003544 053.5192 044.5030 15.49804455868404 CXO 1 25867U 99040B 14022.43852842 .00000007 00000-0 00000+0 0 9856 2 25867 076.5045 327.4355 8314721 275.7140 000.6941 00.37802723 11361 ____________________________________________________________________ These 2-Line ...Continue Reading

[list_settings.list_name] Current TLEs

January 19th 2014 PDT

HST 1 20580U 90037B 14019.20156808 .00001836 00000-0 11584-3 0 4196 2 20580 028.4700 295.9148 0003068 133.4275 021.7627 15.04534548102252 ISS (ZARYA) 1 25544U 98067A 14019.48644676 -.00103426 00000-0 -18425-2 0 4973 2 25544 051.6496 116.6365 0003286 056.2564 120.2169 15.49777875868258 CXO 1 25867U 99040B 14019.79493125 .00000003 00000-0 00000+0 0 9841 2 25867 076.4939 327.5831 8315370 275.7367 000.8519 00.37799115 11356 ____________________________________________________________________ These 2-Line ...Continue Reading
  • This mailing list is a public mailing list - anyone may join or leave, at any time.
  • This mailing list is announce-only.

International Space Station (ISS) / Hubble Space Telescope (HST) / Chandra X-Ray Observatory Orbital Data via EMAIL

Privacy Policy:

Private list